(510053) = 2010 FQ31

Discovered at Siding Spring on 2010-03-20 by Siding Spring Survey.

Orbit

Orbit type: Main Belt

Note: WebGL enabled browser required.

epoch2023-02-25.0
epoch JD2460000.5
perihelion date2022-11-15.44859
perihelion JD2459898.94859
argument of perihelion (°)242.97946
ascending node (°)273.85952
inclination (°)4.36746
eccentricity0.2336738
perihelion distance (AU)2.0206024
Tisserand w.r.t. Jupiter3.4
ΔV w.r.t. Earth (km/sec)9.1
semimajor axis (AU)2.6367392
mean anomaly (°)23.37701
mean daily motion (°/day)0.23019880
aphelion distance (AU)3.253
period (years)4.28
P-vector [x]-0.91682214
P-vector [y]0.38800588
P-vector [z]0.09427937
Q-vector [x]-0.39200023
Q-vector [y]-0.82969253
Q-vector [z]-0.39742435
absolute magnitude17.54
phase slope0.15
uncertainty0
referenceMPO 745323
observations used138
oppositions9
arc length (days)5342
first opposition used2008
last opposition used2023
residual rms (arc-secs)0.88
perturbers coarse indicatorM-v
perturbers precise indicator003Ek
first observation date used2008-10-08.0
last observation date used2023-05-25.0
computer nameMPCLINUX
JD of orbit computation2458132.211544
perihelion JD uncertainty (days)1.4447E-04
argument of perihelion uncertainty (°)1.5658E-04
ascending node uncertainty (°)1.4842E-04
inclination uncertainty (°)9.5582E-06
eccentricity uncertainty 3.3026E-07
perihelion distance uncertainty (AU)9.6881E-07
Minimum Orbit Intersection Distances (in AU)
for orbit epoch: 2460000.5, reference: E2023-KF3
Mercury1.65674
Venus1.31052
Earth1.03499
Mars0.39757
Jupiter1.77441
Saturn6.35753
Uranus16.415
Neptune26.7119

Observations

140 total observations over interval: 2008 10 08.37956 – 2023 05 25.271312
These data are available for download (format description).

